This demonstration page uses our WeatherBlox Daily Observations layout. Learn more.

39.92423, -83.80882

Hourly Observations for July 3, 2016

Temp ( °F °C ) Dew Point ( °F °C ) Humidity (%) Winds ( mph kmh ) Pressure ( in mb ) Visibility ( mi km ) Precip ( " mm )
12:56 am 00:56 Clear 65 18.3 59 15 81 81 ESE 5 7 30.13 1020 10 16.0934 0 0
1:56 am 01:56 Cloudy 64 17.7 58 14.4 81 81 ESE 5 7 30.12 1020 10 16.0934 0 0
2:56 am 02:56 Mostly Cloudy 62 16.6 58 14.4 87 87 E 6 9 30.1 1019 10 16.0934 0 0
3:56 am 03:56 Partly Cloudy 60 15.5 57 13.8 90 90 ENE 5 7 30.1 1019 10 16.0934 0 0
4:56 am 04:56 Mostly Clear 61 16.1 58 14.4 90 90 SE 5 7 30.09 1019 10 16.0934 0 0
5:56 am 05:56 Clear 60 15.5 58 14.4 93 93 Calm 30.11 1020 10 16.0934 0 0
6:56 am 06:56 Partly Cloudy 60 15.5 58 14.4 93 93 E 5 7 30.12 1020 10 16.0934 0 0
7:56 am 07:56 Sunny 62 16.6 60 15.5 93 93 E 5 7 30.13 1020 10 16.0934 0 0
8:56 am 08:56 Mostly Sunny 65 18.3 59 15 81 81 E 6 9 30.13 1020 10 16.0934 0 0
9:56 am 09:56 Partly Cloudy 65 18.3 60 15.5 84 84 ESE 6 9 30.15 1021 10 16.0934 0 0.0254
10:56 am 10:56 Partly Cloudy 65 18.3 61 16.1 87 87 E 6 9 30.14 1021 10 16.0934 0.01 0.254
11:56 am 11:56 Partly Cloudy 66 18.8 62 16.6 87 87 S 6 9 30.14 1021 10 16.0934 0 0
12:56 pm 12:56 Cloudy 64 17.7 61 16.1 90 90 S 9 15 30.13 1020 10 16.0934 0.01 0.254
1:56 pm 13:56 Mostly Cloudy 64 17.7 61 16.1 90 90 SSE 7 11 30.12 1020 8 12.87472 0.01 0.254
2:26 pm 14:26 Mostly Cloudy with Light Rain 63 17 61 16 94 94 SW 6 9 30.15 1021 5 8.0467 0.02 0.508
2:46 pm 14:46 Cloudy with Light Rain 63 17 63 17 100 100 SSW 5 7 30.15 1021 4 6.43736 0.03 0.762
2:56 pm 14:56 Cloudy with Mist and Fog 62 16.6 61 16.1 97 97 S 6 9 30.15 1021 3 4.82802 0.03 0.762
3:56 pm 15:56 Mostly Cloudy with Light Rain 62 16.6 61 16.1 97 97 ESE 5 7 30.13 1020 4 6.43736 0.03 0.762
4:56 pm 16:56 Mostly Cloudy 62 16.6 61 16.1 97 97 SE 6 9 30.13 1020 10 16.0934 0.01 0.254
5:56 pm 17:56 Cloudy 63 17.2 62 16.6 96 96 ESE 7 11 30.1 1019 10 16.0934 0 0
6:20 pm 18:20 Cloudy 63 17 63 17 100 100 SE 6 9 30.09 1019 10 16.0934 0 0
6:56 pm 18:56 Cloudy 63 17.2 61 16.1 93 93 ESE 8 13 30.08 1019 10 16.0934 0 0
7:56 pm 19:56 Mostly Cloudy 63 17.2 60 15.5 90 90 SE 8 13 30.06 1018 10 16.0934 0 0
8:56 pm 20:56 Partly Cloudy 62 16.6 60 15.5 93 93 ESE 7 11 30.06 1018 10 16.0934 0 0
9:24 pm 21:24 Mostly Cloudy with Light Rain 63 17 61 16 94 94 ESE 7 11 30.09 1019 7 11.26538 0 0.0254
9:56 pm 21:56 Cloudy with Mist and Fog 61 16.1 60 15.5 96 96 ESE 7 11 30.07 1018 6 9.65604 0.02 0.508
10:21 pm 22:21 Cloudy with Light Rain 61 16 61 16 100 100 ESE 8 13 30.09 1019 4 6.43736 0.02 0.508
10:56 pm 22:56 Cloudy with Light Rain 61 16.1 61 16.1 100 100 E 8 13 30.05 1018 6 9.65604 0.05 1.27
11:12 pm 23:12 Mostly Cloudy with Light Rain 61 16 61 16 100 100 E 8 13 30.06 1018 6 9.65604 0.02 0.508
11:56 pm 23:56 Clear 61 16.1 61 16.1 100 100 ESE 6 9 30.04 1017 10 16.0934 0.02 0.508

Powered by AerisWeather